Location: ?????????
(41.2393°N, 22.9479°E)
Time: 23:26:29
(UTC+00:00)

Landsat 7 - Pass Details

Date: 17 November 2025
Orbit: 680 x 682 km, 97.9° (Epoch: 09 December)

Event Time Altitude Azimuth Distance (km) Brightness Sun altitude
Rises 16:08:07 0° 167° (SSE) 3,028 7.1 -11.6°
Reaches altitude 10° 16:10:20 10° 168° (SSE) 2,117 6.3 -12.0°
Maximum altitude 16:14:58 86° 256° (WSW) 689 3.8 -12.8°
Drops below altitude 10° 16:19:39 10° 347° (NNW) 2,132 6.3 -13.7°
Sets 16:21:54 0° 348° (NNW) 3,051 7.1 -14.1°
